Regional Weather Roundup
Issued by NWS

Home | Current Version | Previous Version | Graphics & Text | Print | Product List | Glossary Off
Versions: 1 2 3 4 5 6 7 8 9 10 11 12 13 14 15 16 17 18 19 20 21 22 23 24 25 26 27 28 29 30 31 32 33 34 35 36 37 38 39 40 41 42 43 44 45 46 47 48 49 50

000
ASUS43 KFSD 212102
RWRSD

WEATHER ROUNDUP FOR SOUTH DAKOTA
NATIONAL WEATHER SERVICE SIOUX FALLS SD
300 PM CST SUN JAN 21 2018

NOTE: "FAIR" INDICATES FEW OR NO CLOUDS BELOW 12,000 FEET WITH NO
SIGNIFICANT WEATHER AND/OR OBSTRUCTIONS TO VISIBILITY.


SDZ001>005-009-010-012>017-212200-
NORTHWEST AND NORTH CENTRAL SOUTH DAKOTA

CITY           SKY/WX    TMP DP  RH WIND       PRES   REMARKS
BUFFALO          N/A     33  23  66 NW17      29.90F WCI  22
FAITH            N/A     34  25  69 NW9       29.96F WCI  27
MOBRIDGE       CLOUDY    34  24  67 NW5       29.96F WCI  30
$$

SDZ012>016-024>037-041>051-057-063-072>074-212200-
SOUTHWEST AND SOUTH CENTRAL SOUTH DAKOTA

CITY           SKY/WX    TMP DP  RH WIND       PRES   REMARKS
RAPID CTY ARPT CLOUDY    35  23  61 N18       29.95F WCI  24
PIERRE         CLOUDY    33  28  81 N7        29.96F WCI  27
CUSTER         CLOUDY    26  16  65 NE8       29.88S WCI  18
ELLSWORTH AFB  CLOUDY    35  23  60 N16       29.95F WCI  26
PHILIP         CLOUDY    33  30  88 NW8       29.96F WCI  26
PINE RIDGE     LGT SNOW  31  27  85 N10       29.93S FOG     WCI  22
SPEARFISH        N/A     32  21  64 NW7       29.97F WCI  26
WINNER         LGT SNOW  34  32  92 N16       29.91S FOG     WCI  24
$$

SDZ004>011-016>023-039-040-212200-
NORTHEAST SOUTH DAKOTA

CITY           SKY/WX    TMP DP  RH WIND       PRES   REMARKS
ABERDEEN       CLOUDY    31  25  78 NE10      30.02F WCI  22
WATERTOWN      LGT SNOW  33  32  96 N9        29.96F FOG     WCI  25
BROOKINGS      MIX PCPN  35  33  92 N15       29.92S WCI  25
SISSETON         N/A     32  26  78 N15       30.01S WCI  22
$$

SDZ017-020-022-023-036>040-048>070-212200-
SOUTHEAST SOUTH DAKOTA

CITY           SKY/WX    TMP DP  RH WIND       PRES   REMARKS
SIOUX FALLS    PTSUNNY   40  31  70 NE21G32   29.86F
HURON          LGT SNOW  31  31 100 N10       29.96F FOG     WCI  22
CHAMBERLAIN    LGT SNOW  33  33 100 N12       29.92F WCI  25
MITCHELL       CLOUDY    35  33  92 N20       29.92F WCI  24
YANKTON        CLOUDY    41  30  65 N18       29.83F
$$

ABBREVIATIONS USED IN REMARKS
   TC - TEMPERATURE IN CELSIUS
  WCI - WIND CHILL INDEX
   HX - HEAT INDEX
  VSB - VISIBILITY




USA.gov is the U.S. government's official web portal to all federal, state and local government web resources and services.